Walterboro, SC

4:57 PM EST on December 08, 2019 (GMT -0500)
Lowcountry Regional

Weather History for KRBW - November, 2019

Change the Weather History Date:

Saturday, November 16, 2019

  Actual Average Record
Temperature  
Mean Temperature 45 °F -  
Max Temperature 48 °F 68 °F 84 °F (2011)
Min Temperature 42 °F 41 °F 32 °F (2018)
Degree Days  
Heating Degree Days 20    
Moisture  
Dew Point 44 °F    
Average Humidity 93    
Maximum Humidity 100    
Minimum Humidity 81    
Precipitation  
Precipitation 0.00 in - - ()
Sea Level Pressure  
Sea Level Pressure 29.95 in    
Wind  
Wind Speed 9 mph ()    
Max Wind Speed 14 mph    
Max Gust Speed 28 mph    
Visibility 7.0 miles    
Events Rain    
Averages and records for this station are not official NWS values.
T = Trace of Precipitation, MM = Missing Value Source: Averaged Metar Reports

Daily Weather History Graph

Daily Weather History Graph

Search for Another Location

Airport or City:

Astronomy

Nov. 16, 2019 Rise Set
Actual Time 6:53 AM EST 5:20 PM EST
Civil Twilight 6:27 AM EST 5:46 PM EST
Nautical Twilight 5:57 AM EST 6:16 PM EST
Astronomical Twilight 5:28 AM EST 6:46 PM EST
Moon 8:57 PM EST (11/16) 10:40 AM EST (11/16)
Length of Visible Light 11h 19m
Length of Day
10h 26m
Waning Gibbous, 82% of the Moon is Illuminated
Nov 16
Waning Gibbous
Nov 19
Last Quarter
Nov 26
New
Dec 4
First Quarter
Dec 12
Full

Hourly Weather History & Observations

Time (EST) Temp. Windchill Dew Point Humidity Pressure Visibility Wind Dir Wind Speed Gust Speed Precip Events Conditions
12:15 AM 46.4 °F 42.4 °F 46.4 °F 100% 29.93 in 10.0 mi North 8.1 mph - N/A   Overcast
12:35 AM 46.4 °F 41.5 °F 46.4 °F 100% 29.93 in 10.0 mi North 10.4 mph 17.3 mph N/A   Overcast
12:55 AM 46.4 °F 42.4 °F 46.4 °F 100% 29.93 in 10.0 mi NNE 8.1 mph 18.4 mph N/A   Overcast
1:15 AM 46.4 °F 42.4 °F 46.4 °F 100% 29.92 in 10.0 mi North 8.1 mph - N/A   Overcast
1:35 AM 46.4 °F 41.9 °F 46.4 °F 100% 29.90 in 10.0 mi North 9.2 mph 17.3 mph N/A Rain Light Rain
1:55 AM 46.4 °F 42.9 °F 46.4 °F 100% 29.90 in 7.0 mi NNE 6.9 mph - N/A Rain Light Rain
2:15 AM 46.4 °F 41.1 °F 46.4 °F 100% 29.90 in 10.0 mi NNE 11.5 mph 20.7 mph N/A Rain Light Rain
2:35 AM 46.4 °F 42.4 °F 46.4 °F 100% 29.89 in 10.0 mi North 8.1 mph - N/A   Light Drizzle
2:55 AM 46.4 °F 41.9 °F 46.4 °F 100% 29.89 in 10.0 mi North 9.2 mph - N/A   Overcast
3:15 AM 48.2 °F - 46.4 °F 93% 29.89 in 10.0 mi NNE 9.2 mph 20.7 mph N/A   Overcast
3:35 AM 48.2 °F - 46.4 °F 93% 29.89 in 7.0 mi NNE 9.2 mph - N/A   Overcast
3:55 AM 48.2 °F - 46.4 °F 93% 29.88 in 4.0 mi NNE 9.2 mph 18.4 mph N/A   Overcast
4:15 AM 48.2 °F - 46.4 °F 93% 29.88 in 2.0 mi NNE 12.7 mph 18.4 mph N/A Rain Light Rain
4:35 AM 48.2 °F - 46.4 °F 93% 29.87 in 2.5 mi NNE 12.7 mph 17.3 mph N/A   Light Drizzle
4:55 AM 48.2 °F - 46.4 °F 93% 29.89 in 2.5 mi NNE 5.8 mph 16.1 mph N/A   Overcast
5:15 AM 46.4 °F 41.9 °F 46.4 °F 100% 29.88 in 4.0 mi NNE 9.2 mph 17.3 mph N/A   Overcast
5:35 AM 46.4 °F 42.9 °F 46.4 °F 100% 29.89 in 5.0 mi NNE 6.9 mph - N/A   Overcast
5:55 AM 46.4 °F 40.7 °F 46.4 °F 100% 29.90 in 5.0 mi NNE 12.7 mph 16.1 mph N/A   Overcast
6:15 AM 46.4 °F 42.9 °F 46.4 °F 100% 29.90 in 3.0 mi North 6.9 mph 18.4 mph N/A Rain Light Rain
6:55 AM 46.4 °F 42.4 °F 44.6 °F 93% 29.91 in 2.0 mi North 8.1 mph 18.4 mph N/A Rain Light Rain
7:15 AM 46.4 °F 41.9 °F 44.6 °F 93% 29.93 in 3.0 mi NNE 9.2 mph 21.9 mph N/A Rain Light Rain
7:35 AM 46.4 °F 41.1 °F 44.6 °F 93% 29.92 in 2.0 mi NNE 11.5 mph 18.4 mph N/A Rain Light Rain
7:55 AM 46.4 °F 41.1 °F 44.6 °F 93% 29.93 in 2.5 mi NNE 11.5 mph 21.9 mph N/A Rain Light Rain
8:15 AM 46.4 °F 41.1 °F 44.6 °F 93% 29.93 in 2.5 mi NNE 11.5 mph 23.0 mph N/A   Overcast
8:35 AM 46.4 °F 41.5 °F 44.6 °F 93% 29.93 in 2.5 mi NNE 10.4 mph 27.6 mph N/A   Light Drizzle
8:55 AM 44.6 °F 38.4 °F 44.6 °F 100% 29.95 in 4.0 mi NNE 12.7 mph 21.9 mph N/A   Overcast
9:15 AM 44.6 °F 38.8 °F 44.6 °F 100% 29.96 in 10.0 mi North 11.5 mph 20.7 mph N/A   Overcast
9:35 AM 44.6 °F 39.2 °F 42.8 °F 93% 29.96 in 4.0 mi North 10.4 mph 20.7 mph N/A   Overcast
9:55 AM 44.6 °F 39.2 °F 42.8 °F 93% 29.97 in 2.0 mi North 10.4 mph 17.3 mph N/A   Overcast
10:15 AM 44.6 °F 40.7 °F 42.8 °F 93% 29.98 in 2.0 mi North 6.9 mph 17.3 mph N/A Rain Light Rain
10:35 AM 44.6 °F 39.2 °F 42.8 °F 93% 29.97 in 3.0 mi North 10.4 mph 18.4 mph N/A Rain Light Rain
10:55 AM 44.6 °F 39.7 °F 42.8 °F 93% 29.97 in 10.0 mi North 9.2 mph 20.7 mph N/A   Overcast
11:15 AM 44.6 °F 40.2 °F 42.8 °F 93% 29.98 in 10.0 mi North 8.1 mph 17.3 mph N/A   Overcast
11:35 AM 44.6 °F 38.8 °F 41.0 °F 87% 29.97 in 7.0 mi North 11.5 mph 19.6 mph N/A Rain Light Rain
11:55 AM 44.6 °F 39.2 °F 42.8 °F 93% 29.96 in 7.0 mi North 10.4 mph 18.4 mph N/A Rain Light Rain
12:15 PM 44.6 °F 40.7 °F 42.8 °F 93% 29.96 in 10.0 mi North 6.9 mph 17.3 mph N/A   Light Drizzle
12:35 PM 44.6 °F 39.2 °F 42.8 °F 93% 29.96 in 10.0 mi North 10.4 mph - N/A   Light Drizzle
12:55 PM 46.4 °F 42.4 °F 42.8 °F 87% 29.96 in 4.0 mi NNE 8.1 mph - N/A Rain Light Rain
1:15 PM 44.6 °F 39.7 °F 42.8 °F 93% 29.96 in 3.0 mi North 9.2 mph 19.6 mph N/A   Light Drizzle
1:35 PM 44.6 °F 38.8 °F 42.8 °F 93% 29.96 in 2.5 mi North 11.5 mph 16.1 mph N/A Rain Light Rain
1:55 PM 44.6 °F 38.4 °F 42.8 °F 93% 29.96 in 2.5 mi North 12.7 mph 17.3 mph N/A Rain Light Rain
2:15 PM 44.6 °F 38.8 °F 42.8 °F 93% 29.96 in 3.0 mi North 11.5 mph 20.7 mph N/A Rain Light Rain
2:35 PM 44.6 °F 39.7 °F 42.8 °F 93% 29.95 in 2.5 mi North 9.2 mph 23.0 mph N/A Rain Light Rain
2:55 PM 44.6 °F 38.8 °F 42.8 °F 93% 29.96 in 1.8 mi NNE 11.5 mph 26.5 mph N/A Rain Rain
3:15 PM 42.8 °F 37.5 °F 41.0 °F 93% 29.95 in 5.0 mi North 9.2 mph - N/A Rain Light Rain
3:35 PM 44.6 °F 40.2 °F 42.8 °F 93% 29.95 in 10.0 mi North 8.1 mph - N/A Rain Light Rain
3:55 PM 44.6 °F 39.2 °F 42.8 °F 93% 29.96 in 10.0 mi North 10.4 mph 16.1 mph N/A   Overcast
4:15 PM 44.6 °F 39.2 °F 41.0 °F 87% 29.95 in 10.0 mi North 10.4 mph 18.4 mph N/A Rain Light Rain
4:35 PM 44.6 °F 40.7 °F 42.8 °F 93% 29.96 in 5.0 mi NNE 6.9 mph 16.1 mph N/A Rain Rain
4:55 PM 44.6 °F 39.7 °F 42.8 °F 93% 29.96 in 7.0 mi North 9.2 mph - N/A Rain Light Rain
5:15 PM 44.6 °F 40.2 °F 42.8 °F 93% 29.96 in 10.0 mi NNW 8.1 mph - N/A   Overcast
5:35 PM 44.6 °F 40.7 °F 42.8 °F 93% 29.97 in 10.0 mi NNW 6.9 mph - N/A   Overcast
5:55 PM 44.6 °F 41.4 °F 42.8 °F 93% 29.97 in 10.0 mi North 5.8 mph - N/A Rain Light Rain
6:15 PM 44.6 °F 40.2 °F 42.8 °F 93% 29.98 in 10.0 mi NNW 8.1 mph - N/A Rain Light Rain
6:35 PM 44.6 °F 40.7 °F 42.8 °F 93% 29.97 in 10.0 mi NNW 6.9 mph - N/A Rain Light Rain
6:55 PM 44.6 °F 40.7 °F 41.0 °F 87% 29.98 in 10.0 mi North 6.9 mph - N/A Rain Light Rain
7:15 PM 44.6 °F 40.2 °F 41.0 °F 87% 29.98 in 10.0 mi North 8.1 mph - N/A Rain Light Rain
7:35 PM 44.6 °F 41.4 °F 41.0 °F 87% 29.98 in 10.0 mi North 5.8 mph - N/A Rain Light Rain
7:55 PM 44.6 °F 40.7 °F 42.8 °F 93% 29.97 in 10.0 mi North 6.9 mph - N/A   Light Drizzle
8:15 PM 44.6 °F 39.2 °F 41.0 °F 87% 29.98 in 10.0 mi North 10.4 mph 18.4 mph N/A   Overcast
8:55 PM 44.6 °F 39.2 °F 41.0 °F 87% 29.99 in 10.0 mi North 10.4 mph 16.1 mph N/A   Overcast
9:15 PM 46.4 °F 40.4 °F 41.0 °F 81% 29.98 in 10.0 mi North 13.8 mph 25.3 mph N/A   Overcast
9:35 PM 46.4 °F 41.1 °F 41.0 °F 81% 29.98 in 10.0 mi NNE 11.5 mph 19.6 mph N/A   Overcast
9:55 PM 44.6 °F 40.2 °F 41.0 °F 87% 29.98 in 10.0 mi NNE 8.1 mph 23.0 mph N/A   Overcast
10:15 PM 44.6 °F 38.8 °F 41.0 °F 87% 29.98 in 10.0 mi North 11.5 mph 19.6 mph N/A   Overcast
10:35 PM 44.6 °F 39.7 °F 41.0 °F 87% 29.98 in 10.0 mi North 9.2 mph 16.1 mph N/A   Overcast
10:55 PM 44.6 °F 39.2 °F 41.0 °F 87% 29.98 in 10.0 mi North 10.4 mph 17.3 mph N/A   Overcast
11:15 PM 44.6 °F 40.2 °F 41.0 °F 87% 29.98 in 10.0 mi North 8.1 mph - N/A   Overcast
11:35 PM 44.6 °F 39.2 °F 41.0 °F 87% 29.98 in 10.0 mi North 10.4 mph 16.1 mph N/A   Overcast
11:55 PM 44.6 °F 38.8 °F 41.0 °F 87% 29.99 in 10.0 mi North 11.5 mph 19.6 mph N/A   Overcast